When you browse on this site, cookies collect data to enhance your experience and personalize the content and advertising you see.
Visit our Privacy Policy to learn more. By continuing to use the site, you agree to this use of cookies and data.
EN

Hourly Weather Senden

Today, 11 July, Saturday

Time Temperature Precipitation Wind Pressure Humidity
00:00 +16°C° 0.1 mm 2 mps 719 mmHg 90%
01:00 +16°C° 0.1 mm 2 mps 719 mmHg 91%
02:00 +15°C° 2.4 mm 2 mps 719 mmHg 93%
03:00 +15°C° 2.4 mm 1 mps 719 mmHg 95%
04:00 +15°C° 2.4 mm 1 mps 719 mmHg 97%
05:00 +15°C° 1.6 mm 2 mps 719 mmHg 96%
06:00 +15°C° 1.6 mm 2 mps 720 mmHg 95%
07:00 +13°C° 1.6 mm 3 mps 720 mmHg 93%
08:00 +14°C° 0.3 mm 3 mps 721 mmHg 91%
09:00 +14°C° 0.3 mm 3 mps 721 mmHg 88%
10:00 +16°C° 0.3 mm 3 mps 722 mmHg 86%
11:00 +17°C° 0.1 mm 3 mps 722 mmHg 79%
12:00 +18°C° 0.1 mm 3 mps 722 mmHg 72%
13:00 +19°C° 0.1 mm 3 mps 722 mmHg 65%
14:00 +19°C° 0.1 mm 3 mps 722 mmHg 67%
15:00 +19°C° 0.1 mm 3 mps 722 mmHg 68%
16:00 +19°C° 0.1 mm 3 mps 722 mmHg 70%
17:00 +18°C° 0.2 mm 3 mps 722 mmHg 74%
18:00 +18°C° 0.2 mm 2 mps 722 mmHg 78%
19:00 +17°C° 0.2 mm 2 mps 722 mmHg 82%
20:00 +15°C° 0 mm 2 mps 722 mmHg 83%
21:00 +14°C° 0 mm 1 mps 723 mmHg 85%
22:00 +12°C° 0 mm 1 mps 723 mmHg 86%
23:00 +12°C° 0 mm 1 mps 723 mmHg 85%

Tomorrow, 12 July, Sunday

Time Temperature Precipitation Wind Pressure Humidity
00:00 +11°C° 0 mm 1 mps 723 mmHg 83%
01:00 +10°C° 0 mm 1 mps 722 mmHg 82%
02:00 +10°C° 0 mm 1 mps 722 mmHg 83%
03:00 +10°C° 0 mm 1 mps 722 mmHg 84%
04:00 +9°C° 0 mm 1 mps 722 mmHg 85%
05:00 +10°C° 0 mm 1 mps 723 mmHg 84%
06:00 +12°C° 0 mm 1 mps 723 mmHg 84%
07:00 +13°C° 0 mm 2 mps 723 mmHg 83%
08:00 +15°C° 0 mm 2 mps 723 mmHg 77%
09:00 +17°C° 0 mm 3 mps 723 mmHg 72%
10:00 +18°C° 0 mm 3 mps 723 mmHg 66%
11:00 +19°C° 0 mm 3 mps 723 mmHg 64%
12:00 +19°C° 0 mm 4 mps 723 mmHg 61%
13:00 +20°C° 0 mm 4 mps 723 mmHg 59%
14:00 +20°C° 0 mm 4 mps 723 mmHg 59%
15:00 +20°C° 0 mm 4 mps 723 mmHg 60%
16:00 +20°C° 0 mm 4 mps 723 mmHg 60%
17:00 +20°C° 0 mm 3 mps 723 mmHg 65%
18:00 +19°C° 0 mm 3 mps 723 mmHg 70%
19:00 +18°C° 0 mm 2 mps 722 mmHg 75%
20:00 +16°C° 0 mm 2 mps 722 mmHg 77%
21:00 +14°C° 0 mm 2 mps 722 mmHg 80%
22:00 +13°C° 0 mm 2 mps 722 mmHg 82%
23:00 +12°C° 0 mm 2 mps 722 mmHg 84%

Day after tomorrow, 13 July, Monday

Time Temperature Precipitation Wind Pressure Humidity
00:00 +10°C° 0 mm 2 mps 722 mmHg 86%
01:00 +10°C° 0 mm 2 mps 722 mmHg 88%
02:00 +10°C° 0 mm 2 mps 721 mmHg 89%
03:00 +9°C° 0 mm 2 mps 721 mmHg 90%
04:00 +9°C° 0 mm 2 mps 721 mmHg 92%
05:00 +10°C° 0 mm 2 mps 721 mmHg 90%
06:00 +12°C° 0 mm 2 mps 721 mmHg 88%
07:00 +12°C° 0 mm 3 mps 721 mmHg 86%
08:00 +14°C° 0 mm 3 mps 721 mmHg 81%
09:00 +17°C° 0 mm 4 mps 721 mmHg 76%
10:00 +19°C° 0 mm 4 mps 721 mmHg 70%
11:00 +20°C° 0 mm 4 mps 721 mmHg 68%
12:00 +20°C° 0 mm 4 mps 721 mmHg 66%
13:00 +21°C° 0 mm 5 mps 720 mmHg 63%
14:00 +21°C° 0 mm 4 mps 720 mmHg 64%
15:00 +21°C° 0 mm 4 mps 720 mmHg 64%
16:00 +21°C° 0 mm 4 mps 719 mmHg 64%
17:00 +21°C° 0 mm 3 mps 719 mmHg 69%
18:00 +20°C° 0 mm 3 mps 719 mmHg 73%
19:00 +19°C° 0 mm 2 mps 719 mmHg 78%
20:00 +17°C° 0 mm 2 mps 719 mmHg 79%
21:00 +15°C° 0 mm 1 mps 719 mmHg 81%
22:00 +13°C° 0 mm 1 mps 719 mmHg 82%
23:00 +13°C° 0 mm 1 mps 719 mmHg 83%

14 July, Tuesday

Time Temperature Precipitation Wind Pressure Humidity
00:00 +12°C° 0 mm 1 mps 719 mmHg 84%
01:00 +11°C° 0 mm 0 mps 719 mmHg 85%
02:00 +10°C° 0 mm 0 mps 718 mmHg 86%
03:00 +10°C° 0 mm 0 mps 718 mmHg 87%
04:00 +10°C° 0 mm 0 mps 718 mmHg 88%
05:00 +11°C° 0 mm 0 mps 718 mmHg 86%
06:00 +13°C° 0 mm 0 mps 718 mmHg 84%
07:00 +14°C° 0 mm 0 mps 718 mmHg 82%
08:00 +16°C° 0 mm 0 mps 718 mmHg 77%
09:00 +19°C° 0 mm 1 mps 718 mmHg 72%
10:00 +21°C° 0 mm 1 mps 718 mmHg 67%
11:00 +22°C° 0 mm 1 mps 718 mmHg 63%
12:00 +23°C° 0 mm 1 mps 718 mmHg 58%
13:00 +24°C° 0 mm 1 mps 718 mmHg 54%
14:00 +24°C° 0 mm 1 mps 718 mmHg 53%
15:00 +24°C° 0 mm 1 mps 718 mmHg 53%
16:00 +24°C° 0 mm 1 mps 717 mmHg 52%
17:00 +23°C° 0 mm 1 mps 717 mmHg 58%
18:00 +22°C° 0 mm 1 mps 717 mmHg 65%
19:00 +21°C° 0 mm 1 mps 717 mmHg 71%
20:00 +20°C° 0 mm 1 mps 717 mmHg 72%
21:00 +18°C° 0 mm 1 mps 717 mmHg 72%
22:00 +16°C° 0 mm 2 mps 718 mmHg 73%
23:00 +16°C° 0 mm 2 mps 718 mmHg 75%

15 July, Wednesday

Time Temperature Precipitation Wind Pressure Humidity
00:00 +16°C° 0 mm 2 mps 718 mmHg 77%
01:00 +14°C° 0 mm 3 mps 718 mmHg 79%
02:00 +14°C° 0 mm 3 mps 717 mmHg 80%
03:00 +14°C° 0 mm 3 mps 717 mmHg 81%
04:00 +14°C° 0 mm 3 mps 717 mmHg 81%
05:00 +14°C° 0 mm 3 mps 717 mmHg 82%
06:00 +14°C° 0 mm 3 mps 718 mmHg 82%
07:00 +16°C° 0 mm 3 mps 718 mmHg 83%
08:00 +16°C° 0 mm 3 mps 718 mmHg 83%
09:00 +16°C° 0 mm 3 mps 718 mmHg 82%
10:00 +16°C° 0 mm 3 mps 718 mmHg 82%
11:00 +17°C° 0 mm 4 mps 718 mmHg 81%
12:00 +17°C° 0 mm 4 mps 718 mmHg 79%
13:00 +17°C° 0 mm 4 mps 718 mmHg 78%
14:00 +17°C° 0 mm 4 mps 718 mmHg 77%
15:00 +18°C° 0 mm 4 mps 718 mmHg 76%
16:00 +17°C° 0 mm 5 mps 718 mmHg 75%
17:00 +18°C° 0.1 mm 4 mps 718 mmHg 77%
18:00 +18°C° 0.1 mm 4 mps 718 mmHg 79%
19:00 +18°C° 0.1 mm 3 mps 718 mmHg 82%
20:00 +17°C° 0.1 mm 3 mps 718 mmHg 84%
21:00 +16°C° 0.1 mm 3 mps 719 mmHg 86%
22:00 +14°C° 0.1 mm 2 mps 719 mmHg 88%
23:00 +13°C° 0 mm 2 mps 719 mmHg 90%

16 July, Thursday

Time Temperature Precipitation Wind Pressure Humidity
00:00 +13°C° 0 mm 2 mps 719 mmHg 92%
01:00 +12°C° 0 mm 2 mps 719 mmHg 94%
02:00 +12°C° 0 mm 2 mps 719 mmHg 94%
03:00 +12°C° 0 mm 2 mps 719 mmHg 94%
04:00 +12°C° 0 mm 2 mps 719 mmHg 94%
05:00 +13°C° 0 mm 2 mps 720 mmHg 91%
06:00 +12°C° 0 mm 3 mps 720 mmHg 88%
07:00 +13°C° 0 mm 3 mps 720 mmHg 85%
08:00 +14°C° 0 mm 3 mps 721 mmHg 79%
09:00 +16°C° 0 mm 3 mps 721 mmHg 73%
10:00 +17°C° 0 mm 3 mps 721 mmHg 67%
11:00 +18°C° 0 mm 3 mps 721 mmHg 66%
12:00 +18°C° 0 mm 3 mps 721 mmHg 65%
13:00 +19°C° 0 mm 3 mps 721 mmHg 63%
14:00 +19°C° 0 mm 2 mps 721 mmHg 63%
15:00 +20°C° 0 mm 2 mps 721 mmHg 63%
16:00 +20°C° 0 mm 2 mps 720 mmHg 63%
17:00 +19°C° 0 mm 2 mps 720 mmHg 67%
18:00 +20°C° 0 mm 1 mps 720 mmHg 72%
19:00 +19°C° 0 mm 1 mps 720 mmHg 76%
20:00 +18°C° 0 mm 1 mps 720 mmHg 77%
21:00 +16°C° 0 mm 1 mps 720 mmHg 78%
22:00 +14°C° 0 mm 1 mps 721 mmHg 79%
23:00 +14°C° 0 mm 1 mps 720 mmHg 81%
Show more